STARLINK-35084

Last updated on Tue Sep 16 2025 00:02:08 GMT+0000 (Coordinated Universal Time)

1 65452U 25194U 25258.01796581 .00243325 00000+0 13965-2 0 9996 2 65452 97.5975 109.3537 0002210 10.5635 349.5677 15.78097535 3092
UTC large
Height (km)
Speed (km/s)
/
Latitude / Longitude
Inclination (degrees)
Orbital Period (minutes)
Azimuth
Elevation
Range (km)
Doppler Factor

Next 0 passes for location: London (51.5072 / 0.1276)

Sorry there are no passes over London.